When you browse on this site, cookies collect data to enhance your experience and personalize the content and advertising you see.
Visit our Privacy Policy to learn more. By continuing to use the site, you agree to this use of cookies and data.
  • în România
  • Lista ţărilor
  • Pe 7 zile
  • Temperatura apei
  • Hartă satelitară
  • Meteo pe hartă
  • Widget-uri
  • user-avatar
    Intrare

    Meteo pe oră la Ihala

    Astăzi, 23 Iulie, Marţi

    Timp Temperatura Precipitaţii Vânt Presiune Umiditate
    00:00 +18°C° 0 mm 1 m/s 753 mmHg 62%
    01:00 +18°C° 0 mm 1 m/s 753 mmHg 64%
    02:00 +16°C° 0 mm 1 m/s 753 mmHg 67%
    03:00 +16°C° 0 mm 1 m/s 753 mmHg 69%
    04:00 +16°C° 0 mm 1 m/s 753 mmHg 71%
    05:00 +16°C° 0 mm 1 m/s 753 mmHg 73%
    06:00 +19°C° 0 mm 1 m/s 753 mmHg 65%
    07:00 +20°C° 0 mm 1 m/s 753 mmHg 57%
    08:00 +22°C° 0 mm 1 m/s 753 mmHg 50%
    09:00 +23°C° 0 mm 2 m/s 753 mmHg 46%
    10:00 +24°C° 0 mm 2 m/s 753 mmHg 43%
    11:00 +25°C° 0 mm 2 m/s 753 mmHg 40%
    12:00 +26°C° 0 mm 2 m/s 753 mmHg 39%
    13:00 +26°C° 0 mm 2 m/s 753 mmHg 39%
    14:00 +26°C° 0 mm 2 m/s 753 mmHg 39%
    15:00 +26°C° 0 mm 2 m/s 753 mmHg 40%
    16:00 +25°C° 0 mm 2 m/s 753 mmHg 41%
    17:00 +25°C° 0 mm 2 m/s 753 mmHg 43%
    18:00 +23°C° 0 mm 2 m/s 753 mmHg 48%
    19:00 +21°C° 0 mm 2 m/s 753 mmHg 52%
    20:00 +19°C° 0 mm 2 m/s 753 mmHg 57%
    21:00 +18°C° 0 mm 2 m/s 753 mmHg 55%
    22:00 +18°C° 0 mm 1 m/s 753 mmHg 53%
    23:00 +16°C° 0 mm 1 m/s 753 mmHg 50%

    Mâine, 24 Iulie, Miercuri

    Timp Temperatura Precipitaţii Vânt Presiune Umiditate
    00:00 +16°C° 0 mm 2 m/s 753 mmHg 56%
    01:00 +16°C° 0 mm 2 m/s 753 mmHg 61%
    02:00 +15°C° 0 mm 2 m/s 753 mmHg 66%
    03:00 +15°C° 0.1 mm 2 m/s 753 mmHg 73%
    04:00 +14°C° 0.1 mm 1 m/s 753 mmHg 80%
    05:00 +14°C° 0.1 mm 1 m/s 753 mmHg 87%
    06:00 +15°C° 0.1 mm 1 m/s 753 mmHg 84%
    07:00 +16°C° 0.1 mm 1 m/s 753 mmHg 82%
    08:00 +18°C° 0.1 mm 1 m/s 753 mmHg 79%
    09:00 +18°C° 0 mm 1 m/s 753 mmHg 77%
    10:00 +18°C° 0 mm 1 m/s 753 mmHg 75%
    11:00 +18°C° 0 mm 1 m/s 754 mmHg 73%
    12:00 +19°C° 0 mm 1 m/s 754 mmHg 69%
    13:00 +19°C° 0 mm 1 m/s 754 mmHg 64%
    14:00 +20°C° 0 mm 1 m/s 754 mmHg 60%
    15:00 +21°C° 0 mm 1 m/s 754 mmHg 58%
    16:00 +21°C° 0 mm 1 m/s 754 mmHg 56%
    17:00 +21°C° 0 mm 2 m/s 754 mmHg 55%
    18:00 +20°C° 0 mm 1 m/s 754 mmHg 61%
    19:00 +19°C° 0 mm 1 m/s 754 mmHg 68%
    20:00 +16°C° 0 mm 1 m/s 754 mmHg 74%
    21:00 +15°C° 0 mm 1 m/s 754 mmHg 77%
    22:00 +15°C° 0 mm 1 m/s 755 mmHg 80%
    23:00 +14°C° 0 mm 1 m/s 755 mmHg 83%

    Poimâine, 25 Iulie, Joi

    Timp Temperatura Precipitaţii Vânt Presiune Umiditate
    00:00 +13°C° 0 mm 1 m/s 755 mmHg 86%
    01:00 +13°C° 0 mm 1 m/s 755 mmHg 89%
    02:00 +12°C° 0 mm 2 m/s 755 mmHg 92%
    03:00 +13°C° 0 mm 2 m/s 756 mmHg 91%
    04:00 +13°C° 0 mm 2 m/s 756 mmHg 90%
    05:00 +13°C° 0 mm 2 m/s 756 mmHg 89%
    06:00 +14°C° 0 mm 2 m/s 756 mmHg 82%
    07:00 +16°C° 0 mm 2 m/s 756 mmHg 74%
    08:00 +18°C° 0 mm 2 m/s 756 mmHg 66%
    09:00 +20°C° 0 mm 2 m/s 757 mmHg 60%
    10:00 +21°C° 0 mm 2 m/s 757 mmHg 54%
    11:00 +24°C° 0 mm 2 m/s 757 mmHg 47%
    12:00 +24°C° 0 mm 2 m/s 757 mmHg 46%
    13:00 +25°C° 0 mm 2 m/s 757 mmHg 45%
    14:00 +26°C° 0 mm 2 m/s 757 mmHg 43%
    15:00 +26°C° 0 mm 2 m/s 757 mmHg 45%
    16:00 +26°C° 0 mm 2 m/s 757 mmHg 48%
    17:00 +26°C° 0 mm 2 m/s 757 mmHg 50%
    18:00 +24°C° 0 mm 2 m/s 757 mmHg 58%
    19:00 +23°C° 0 mm 2 m/s 757 mmHg 65%
    20:00 +21°C° 0 mm 2 m/s 758 mmHg 73%
    21:00 +20°C° 0 mm 2 m/s 758 mmHg 77%
    22:00 +19°C° 0 mm 2 m/s 758 mmHg 81%
    23:00 +18°C° 0 mm 2 m/s 758 mmHg 84%

    26 Iulie, Vineri

    Timp Temperatura Precipitaţii Vânt Presiune Umiditate
    00:00 +17°C° 0 mm 2 m/s 759 mmHg 87%
    01:00 +17°C° 0 mm 2 m/s 759 mmHg 89%
    02:00 +18°C° 0 mm 1 m/s 759 mmHg 92%
    03:00 +18°C° 0 mm 1 m/s 759 mmHg 91%
    04:00 +18°C° 0 mm 1 m/s 759 mmHg 90%
    05:00 +19°C° 0 mm 1 m/s 760 mmHg 89%
    06:00 +21°C° 0 mm 1 m/s 760 mmHg 81%
    07:00 +23°C° 0 mm 1 m/s 760 mmHg 72%
    08:00 +25°C° 0 mm 1 m/s 760 mmHg 64%
    09:00 +26°C° 0 mm 1 m/s 760 mmHg 58%
    10:00 +28°C° 0 mm 1 m/s 760 mmHg 53%
    11:00 +29°C° 0 mm 1 m/s 760 mmHg 48%
    12:00 +29°C° 0 mm 1 m/s 760 mmHg 46%
    13:00 +30°C° 0 mm 1 m/s 759 mmHg 44%
    14:00 +30°C° 0 mm 1 m/s 759 mmHg 43%
    15:00 +30°C° 0 mm 1 m/s 759 mmHg 44%
    16:00 +29°C° 0 mm 1 m/s 759 mmHg 45%
    17:00 +29°C° 0 mm 1 m/s 758 mmHg 47%
    18:00 +27°C° 0 mm 1 m/s 758 mmHg 54%
    19:00 +25°C° 0 mm 1 m/s 758 mmHg 61%
    20:00 +23°C° 0 mm 1 m/s 758 mmHg 68%
    21:00 +22°C° 0 mm 1 m/s 758 mmHg 70%
    22:00 +21°C° 0 mm 1 m/s 758 mmHg 71%
    23:00 +20°C° 0 mm 1 m/s 758 mmHg 73%

    27 Iulie, Sâmbătă

    Timp Temperatura Precipitaţii Vânt Presiune Umiditate
    00:00 +19°C° 0 mm 2 m/s 758 mmHg 73%
    01:00 +18°C° 0 mm 2 m/s 758 mmHg 74%
    02:00 +18°C° 0 mm 2 m/s 758 mmHg 74%
    03:00 +18°C° 0 mm 2 m/s 758 mmHg 73%
    04:00 +18°C° 0 mm 2 m/s 758 mmHg 73%
    05:00 +18°C° 0 mm 2 m/s 758 mmHg 72%
    06:00 +20°C° 0 mm 2 m/s 757 mmHg 65%
    07:00 +23°C° 0 mm 2 m/s 757 mmHg 58%
    08:00 +25°C° 0 mm 2 m/s 757 mmHg 50%
    09:00 +27°C° 0 mm 2 m/s 757 mmHg 48%
    10:00 +28°C° 0 mm 2 m/s 756 mmHg 46%
    11:00 +30°C° 0 mm 3 m/s 756 mmHg 44%
    12:00 +30°C° 0 mm 3 m/s 756 mmHg 42%
    13:00 +31°C° 0 mm 3 m/s 755 mmHg 40%
    14:00 +33°C° 0 mm 3 m/s 755 mmHg 39%
    15:00 +32°C° 0 mm 4 m/s 755 mmHg 40%
    16:00 +32°C° 0 mm 4 m/s 755 mmHg 42%
    17:00 +30°C° 0 mm 5 m/s 755 mmHg 44%
    18:00 +28°C° 0 mm 5 m/s 755 mmHg 55%
    19:00 +25°C° 0 mm 5 m/s 756 mmHg 66%
    20:00 +22°C° 0 mm 5 m/s 756 mmHg 77%
    21:00 +20°C° 0 mm 5 m/s 756 mmHg 74%
    22:00 +17°C° 0 mm 5 m/s 757 mmHg 70%
    23:00 +15°C° 0 mm 5 m/s 758 mmHg 67%

    28 Iulie, Duminică

    Timp Temperatura Precipitaţii Vânt Presiune Umiditate
    00:00 +14°C° 0 mm 4 m/s 758 mmHg 68%
    01:00 +12°C° 0 mm 4 m/s 758 mmHg 69%
    02:00 +11°C° 0 mm 4 m/s 759 mmHg 70%
    03:00 +11°C° 0 mm 4 m/s 759 mmHg 70%
    04:00 +10°C° 0 mm 4 m/s 759 mmHg 69%
    05:00 +10°C° 0 mm 4 m/s 759 mmHg 69%
    06:00 +11°C° 0 mm 4 m/s 759 mmHg 63%
    07:00 +12°C° 0 mm 4 m/s 759 mmHg 58%
    08:00 +14°C° 0 mm 3 m/s 759 mmHg 52%
    09:00 +16°C° 0 mm 3 m/s 759 mmHg 47%
    10:00 +17°C° 0 mm 3 m/s 759 mmHg 43%
    11:00 +19°C° 0 mm 3 m/s 759 mmHg 38%
    12:00 +19°C° 0 mm 2 m/s 759 mmHg 37%
    13:00 +20°C° 0 mm 2 m/s 759 mmHg 37%
    14:00 +21°C° 0 mm 2 m/s 758 mmHg 36%
    15:00 +21°C° 0 mm 2 m/s 758 mmHg 38%
    16:00 +22°C° 0 mm 1 m/s 758 mmHg 40%
    17:00 +22°C° 0 mm 1 m/s 757 mmHg 42%
    18:00 +21°C° 0 mm 1 m/s 757 mmHg 47%
    19:00 +20°C° 0 mm 1 m/s 757 mmHg 52%
    20:00 +19°C° 0 mm 1 m/s 757 mmHg 58%
    21:00 +18°C° 0 mm 1 m/s 756 mmHg 60%
    22:00 +18°C° 0 mm 1 m/s 756 mmHg 63%
    23:00 +16°C° 0 mm 1 m/s 756 mmHg 65%
    Arată mai mult